This is the latest recevied weather packets stored in our database for station/object KB0RPJ. If no packets are shown the sender has not sent any weather packets the latest 10 day(s).
| Time | Temp. | Humidity | Pressure | Rain* | Wind** | Luminosity | Snow |
|---|---|---|---|---|---|---|---|
| 1778189405 | 19.44° C | 44% | 1010.5 hPa | 0 mm | - | 305 W/m² | - |
| 1778189119 | 19.44° C | 43% | 1010.5 hPa | 0 mm | - | 340 W/m² | - |
| 1778188806 | 19.44° C | 41% | 1010.6 hPa | 0 mm | - | 218 W/m² | - |
| 1778188512 | 20° C | 43% | 1010.6 hPa | 0 mm | - | 173 W/m² | - |
| 1778188206 | 19.44° C | 47% | 1010.5 hPa | 0 mm | - | 398 W/m² | - |
| 1778187910 | 19.44° C | 43% | 1010.7 hPa | 0 mm | - | 540 W/m² | - |
| 1778187605 | 20° C | 42% | 1010.6 hPa | 0 mm | - | 277 W/m² | - |
| 1778187307 | 20° C | 42% | 1010.7 hPa | 0 mm | - | 473 W/m² | - |
| 1778187008 | 20.56° C | 41% | 1010.7 hPa | 0 mm | - | 424 W/m² | - |
| 1778186704 | 20.56° C | 42% | 1010.8 hPa | 0 mm | - | 792 W/m² | - |
| 1778186405 | 20.56° C | 41% | 1010.8 hPa | 0 mm | - | 886 W/m² | - |
| 1778186105 | 20.56° C | 41% | 1010.8 hPa | 0 mm | - | 900 W/m² | - |
| 1778185805 | 20° C | 41% | 1010.8 hPa | 0 mm | - | 852 W/m² | - |
| 1778185504 | 20° C | 40% | 1011 hPa | 0 mm | - | 965 W/m² | - |
| 1778185205 | 20.56° C | 41% | 1011 hPa | 0 mm | - | 509 W/m² | - |
| 1778184905 | 20.56° C | 41% | 1011.2 hPa | 0 mm | - | 904 W/m² | - |
| 1778184606 | 20.56° C | 43% | 1011.1 hPa | 0 mm | - | 835 W/m² | - |
| 1778184305 | 20° C | 43% | 1011.3 hPa | 0 mm | - | 919 W/m² | - |
| 1778184004 | 20° C | 43% | 1011.3 hPa | 0 mm | - | 960 W/m² | - |
| 1778183705 | 20° C | 43% | 1011.4 hPa | 0 mm | - | 931 W/m² | - |
| 1778183405 | 19.44° C | 43% | 1011.4 hPa | 0 mm | - | 818 W/m² | - |
| 1778183117 | 20° C | 44% | 1011.5 hPa | 0 mm | - | 762 W/m² | - |
| 1778182806 | 19.44° C | 42% | 1011.6 hPa | 0 mm | - | 974 W/m² | - |
| 1778182505 | 19.44° C | 43% | 1011.7 hPa | 0 mm | - | 958 W/m² | - |
| 1778182205 | 19.44° C | 45% | 1011.8 hPa | 0 mm | - | 940 W/m² | - |
* Rain latest hour (hover to see other rain measurements)
** Current wind speed in m/s (hover to see current wind gust speed)